星链-35818(STARLINK-35818)

导读

STARLINK-35818是美国SpaceX星链星座的一员,于2025年11月19日发射入轨,归属星链互联网卫星网络,星链旨在为全球提供高速低延迟宽带互联网服务。该卫星延续星链设计思路,依托大规模星座组网,服务偏远地区通信、移动网络接入等场景,是星链星座扩容计划的组成部分。

Basic Information
目录编号:
66540
目录名称:
STARLINK-35818
国际标识:
2025-265AA
轨道中心:
EARTH
卫星名称:
星链-35818
卫星全名:
星链-35818(STARLINK-35818)
卫星状态:
在轨 (已飞行296 天)
发射日期:
2025-11-19 UTC
国别 :
美国 (US)
星等 :
--
This satellite is enrolled in the Space Conjunction Data Service (SCDS) and the current flight risk assessment level is: No High Risk
Orbit Information
数据来源 国际轨道数据
星历时间: 2026-09-11T11:49:56+0800
15小时前
查看轨道信息
半长轴: 6861.147km
偏心率: 0.0001541
轨道倾角: 43.002°
近地点辐角 253.234°
升交点赤经 310.931°
平近点角 106.834°
近地点: 481.952km
远地点: 484.068km
周期: 94.266分钟
每日圈数: 15.275933
Detailed Information
固有亮度:
5
最大亮度:
2.5
卫星平台:
Starlink V1.0
覆盖范围:
全球
运营商:
太空探索技术公司
运营商所在国:
美国
制造商(研发单位):
太空探索技术公司
制造商所在国:
美国
使用方式:
暂无
Satellite Introduction
Starlink 计划是 SpaceX 推出的全球卫星互联网项目,通过发射低轨道卫星,为全球尤其是偏远地区提供高速、低延迟的互联网服务。自 2019 年起,Starlink 已部署数千颗卫星,旨在缩小全球数字鸿沟,推动互联网普及。该项目还为军事、航空等行业提供通信支持,带来广泛经济效益。
2D Orbit Map
3D Orbit Map
Orbit Altitude Analysis Chart
Orbit Inclination Analysis Chart
Orbit Comprehensive Analysis Chart
View Comprehensive Chart
Conjunction Data List
Event ID Objects TCA Miss Dist (km) Collision Risk Probability Collision Risk Index (CRI) Action
CDM_260912-212406-387406-654021
2026-09-12T
21:24:44+0000
1.326 km
极远距离
9.148977E-6 低风险 0.54
CDM_260912-061405-836606-654021
2026-09-12T
06:14:13+0000
1.375 km
极远距离
4.909496E-6 低风险 0.49
CDM_260912-172105-864706-654021
2026-09-12T
17:21:37+0000
1.574 km
极远距离
3.646626E-6 低风险 0.46
CDM_260912-004405-836606-654021
2026-09-12T
00:44:41+0000
2.039 km
极远距离
1.582706E-6 低风险 0.39
CDM_260911-151704-282706-654021
OBJECT C (42827)
2026-09-11T
15:17:21+0000
2.663 km
极远距离
1.461333E-6 低风险 0.38
CDM_260912-044005-836606-654021
2026-09-12T
04:40:03+0000
2.844 km
极远距离
8.704351E-7 极低风险 0.34
CDM_260912-021805-836606-654021
2026-09-12T
02:18:50+0000
2.926 km
极远距离
8.418069E-7 极低风险 0.34
Miss Distance Evolution Trend with All Objects
Collision Probability Evolution Trend with All Objects